| time (UTC) | temp F | wind direction | speed knots | gust knots | rain 1hr in | rain 24hr in | rain mn in | humidity % | barometer mb |
| 20260508104444 | 70 | 203 | 0.0 | 0.0 | 0.00 | 0.00 | 0.00 | 31 | 1009.7 |
| 20260508104434 | 70 | 23 | 0.0 | 0.0 | 0.00 | 0.00 | 0.00 | 32 | 1009.7 |
| 20260508103402 | 70 | 248 | 0.0 | 0.0 | 0.00 | 0.00 | 0.00 | 31 | 1009.7 |
| 20260508102851 | 71 | 270 | 0.0 | 0.0 | 0.00 | 0.00 | 0.00 | 35 | 1009.7 |
| 20260508102358 | 70 | 315 | 0.0 | 0.9 | 0.00 | 0.00 | 0.00 | 31 | 1009.7 |
| 20260508101843 | 71 | 270 | 0.0 | 0.9 | 0.00 | 0.00 | 0.00 | 31 | 1009.7 |
| 20260508101331 | 71 | 45 | 0.0 | 0.0 | 0.00 | 0.00 | 0.00 | 34 | 1009.7 |
| 20260508101110 | 71 | 23 | 0.0 | 0.0 | 0.00 | 0.00 | 0.00 | 32 | 1009.7 |
| 20260508100838 | 71 | 23 | 0.0 | 0.0 | 0.00 | 0.00 | 0.00 | 32 | 1009.7 |
| 20260508100335 | 71 | 23 | 0.0 | 0.0 | 0.00 | 0.00 | 0.00 | 31 | 1009.7 |
| 20260508100059 | 71 | 338 | 0.0 | 0.0 | 0.00 | 0.00 | 0.00 | 30 | 1009.3 |
| 20260508095320 | 71 | 315 | 0.0 | 0.0 | 0.00 | 0.00 | 0.00 | 30 | 1009.3 |
| 20260508094642 | 71 | 0 | 0.0 | 1.7 | 0.00 | 0.00 | 0.00 | 30 | 1009.3 |
| 20260508094124 | 71 | 23 | 0.0 | 1.7 | 0.00 | 0.00 | 0.00 | 30 | 1009.3 |
| 20260508093604 | 71 | 45 | 0.0 | 0.9 | 0.00 | 0.00 | 0.00 | 30 | 1009.3 |
| 20260508093050 | 72 | 45 | 0.0 | 1.7 | 0.00 | 0.00 | 0.00 | 30 | 1009.3 |
| 20260508092545 | 72 | 113 | 0.0 | 1.7 | 0.00 | 0.00 | 0.00 | 30 | 1009.3 |
| 20260508092044 | 72 | 135 | 0.0 | 1.7 | 0.00 | 0.00 | 0.00 | 27 | 1009.7 |
| 20260508091547 | 72 | 113 | 0.0 | 1.7 | 0.00 | 0.00 | 0.00 | 27 | 1009.3 |
| 20260508091039 | 72 | 135 | 0.0 | 1.7 | 0.00 | 0.00 | 0.00 | 27 | 1009.3 |
| 20260508090532 | 72 | 338 | 0.0 | 3.5 | 0.00 | 0.00 | 0.00 | 27 | 1009.7 |
| 20260508090017 | 72 | 23 | 0.9 | 3.5 | 0.00 | 0.00 | 0.00 | 25 | 1009.7 |
| 20260508085814 | 73 | 90 | 1.7 | 2.6 | 0.00 | 0.00 | 0.00 | 25 | 1009.7 |
| 20260508084953 | 73 | 45 | 0.9 | 2.6 | 0.00 | 0.00 | 0.00 | 25 | 1009.7 |
| 20260508084444 | 73 | 68 | 0.9 | 2.6 | 0.00 | 0.00 | 0.00 | 25 | 1009.7 |
| 20260508083943 | 73 | 68 | 0.9 | 2.6 | 0.00 | 0.00 | 0.00 | 25 | 1009.7 |
| 20260508083433 | 73 | 0 | 0.0 | 1.7 | 0.00 | 0.00 | 0.00 | 27 | 1009.7 |
| 20260508082905 | 73 | 90 | 0.0 | 1.7 | 0.00 | 0.00 | 0.00 | 27 | 1009.7 |
| 20260508082405 | 73 | 45 | 0.0 | 0.9 | 0.00 | 0.00 | 0.00 | 29 | 1009.7 |
| 20260508081859 | 74 | 23 | 0.0 | 0.9 | 0.00 | 0.00 | 0.00 | 29 | 1009.7 |
| 20260508081352 | 74 | 45 | 0.0 | 0.0 | 0.00 | 0.00 | 0.00 | 27 | 1009.7 |
| 20260508080815 | 74 | 45 | 0.0 | 0.0 | 0.00 | 0.00 | 0.00 | 25 | 1009.3 |
| 20260508080309 | 74 | 338 | 0.0 | 0.0 | 0.00 | 0.00 | 0.00 | 25 | 1009.3 |
| 20260508075801 | 74 | 0 | 0.0 | 0.0 | 0.00 | 0.00 | 0.00 | 25 | 1009.3 |
| 20260508075241 | 74 | 0 | 0.0 | 0.0 | 0.00 | 0.00 | 0.00 | 25 | 1009.0 |
| 20260508074711 | 74 | 0 | 0.0 | 0.0 | 0.00 | 0.00 | 0.00 | 24 | 1009.7 |
| 20260508074513 | 74 | 23 | 0.0 | 0.0 | 0.00 | 0.00 | 0.00 | 24 | 1009.3 |
| 20260508073646 | 74 | 23 | 0.0 | 0.0 | 0.00 | 0.00 | 0.00 | 24 | 1009.3 |
| 20260508073142 | 74 | 45 | 0.0 | 0.0 | 0.00 | 0.00 | 0.00 | 22 | 1009.3 |
| 20260508072631 | 74 | 270 | 0.0 | 0.9 | 0.00 | 0.00 | 0.00 | 22 | 1009.3 |
| 20260508072105 | 74 | 315 | 0.0 | 2.6 | 0.00 | 0.00 | 0.00 | 22 | 1009.7 |
| 20260508071538 | 74 | 180 | 0.9 | 3.5 | 0.00 | 0.00 | 0.00 | 22 | 1009.7 |
| 20260508071319 | 75 | 158 | 0.9 | 3.5 | 0.00 | 0.00 | 0.00 | 25 | 1009.3 |
| 20260508070525 | 75 | 338 | 0.0 | 0.0 | 0.00 | 0.00 | 0.00 | 25 | 1009.3 |
| 20260508070010 | 75 | 338 | 0.0 | 0.0 | 0.00 | 0.00 | 0.00 | 25 | 1009.3 |
| 20260508065736 | 76 | 338 | 0.0 | 0.0 | 0.00 | 0.00 | 0.00 | 25 | 1009.0 |
| 20260508064957 | 76 | 338 | 0.0 | 0.0 | 0.00 | 0.00 | 0.00 | 25 | 1009.0 |
| 20260508064449 | 76 | 0 | 0.0 | 0.0 | 0.00 | 0.00 | 0.00 | 25 | 1009.3 |
| 20260508063724 | 76 | 0 | 0.0 | 0.0 | 0.00 | 0.00 | 0.00 | 25 | 1009.3 |
| 20260508063219 | 76 | 0 | 0.0 | 0.0 | 0.00 | 0.00 | 0.00 | 25 | 1009.3 |
| 20260508062712 | 76 | 0 | 0.0 | 1.7 | 0.00 | 0.00 | 0.00 | 25 | 1009.0 |
| 20260508062201 | 77 | 0 | 0.0 | 1.7 | 0.00 | 0.00 | 0.00 | 24 | 1009.3 |
| 20260508061707 | 77 | 338 | 0.0 | 0.0 | 0.00 | 0.00 | 0.00 | 24 | 1009.0 |
| 20260508061153 | 78 | 338 | 0.0 | 0.0 | 0.00 | 0.00 | 0.00 | 24 | 1009.3 |
| 20260508060914 | 78 | 315 | 0.0 | 0.0 | 0.00 | 0.00 | 0.00 | 24 | 1009.0 |
| 20260508060123 | 78 | 315 | 0.0 | 0.0 | 0.00 | 0.00 | 0.00 | 22 | 1009.0 |
| 20260508055556 | 78 | 315 | 0.0 | 0.0 | 0.00 | 0.00 | 0.00 | 22 | 1009.0 |
| 20260508055004 | 78 | 248 | 0.0 | 0.0 | 0.00 | 0.00 | 0.00 | 22 | 1009.3 |
| 20260508054734 | 78 | 225 | 0.0 | 0.0 | 0.00 | 0.00 | 0.00 | 22 | 1009.3 |
| 20260508053913 | 79 | 225 | 0.0 | 0.0 | 0.00 | 0.00 | 0.00 | 22 | 1009.3 |
| 20260508053404 | 79 | 225 | 0.0 | 0.0 | 0.00 | 0.00 | 0.00 | 20 | 1009.3 |
| 20260508052834 | 79 | 180 | 0.0 | 0.0 | 0.00 | 0.00 | 0.00 | 22 | 1009.0 |
| 20260508052333 | 80 | 180 | 0.0 | 0.0 | 0.00 | 0.00 | 0.00 | 22 | 1009.0 |
| 20260508051812 | 80 | 203 | 0.0 | 0.0 | 0.00 | 0.00 | 0.00 | 22 | 1009.0 |
| 20260508051455 | 80 | 203 | 0.0 | 0.0 | 0.00 | 0.00 | 0.00 | 22 | 1009.0 |
| 20260508050645 | 80 | 203 | 0.0 | 0.0 | 0.00 | 0.00 | 0.00 | 22 | 1009.0 |
| 20260508050405 | 80 | 203 | 0.0 | 0.0 | 0.00 | 0.00 | 0.00 | 20 | 1009.0 |
| 20260508045641 | 81 | 203 | 0.0 | 0.0 | 0.00 | 0.00 | 0.00 | 20 | 1008.7 |
| 20260508045139 | 81 | 203 | 0.0 | 0.0 | 0.00 | 0.00 | 0.00 | 20 | 1008.7 |
| 20260508044638 | 81 | 203 | 0.0 | 0.0 | 0.00 | 0.00 | 0.00 | 20 | 1009.0 |
| 20260508044117 | 82 | 203 | 0.0 | 0.0 | 0.00 | 0.00 | 0.00 | 20 | 1008.7 |
| 20260508043639 | 82 | 203 | 0.0 | 0.0 | 0.00 | 0.00 | 0.00 | 19 | 1008.7 |
| 20260508043118 | 82 | 203 | 0.0 | 0.0 | 0.00 | 0.00 | 0.00 | 19 | 1008.7 |
| 20260508042612 | 83 | 203 | 0.0 | 0.0 | 0.00 | 0.00 | 0.00 | 19 | 1008.7 |
| 20260508041956 | 83 | 203 | 0.0 | 0.0 | 0.00 | 0.00 | 0.00 | 17 | 1008.7 |
| 20260508041437 | 83 | 203 | 0.0 | 0.0 | 0.00 | 0.00 | 0.00 | 17 | 1008.7 |
| 20260508040921 | 84 | 203 | 0.0 | 0.0 | 0.00 | 0.00 | 0.00 | 17 | 1008.3 |
| 20260508040415 | 84 | 203 | 0.0 | 0.0 | 0.00 | 0.00 | 0.00 | 19 | 1008.3 |
| 20260508040133 | 84 | 203 | 0.0 | 0.0 | 0.00 | 0.00 | 0.00 | 17 | 1008.3 |
| 20260508035336 | 85 | 203 | 0.0 | 0.0 | 0.00 | 0.00 | 0.00 | 15 | 1008.3 |
| 20260508034825 | 85 | 203 | 0.0 | 0.0 | 0.00 | 0.00 | 0.00 | 15 | 1008.0 |
| 20260508034327 | 85 | 180 | 0.0 | 0.0 | 0.00 | 0.00 | 0.00 | 17 | 1008.0 |
| 20260508033814 | 86 | 203 | 0.0 | 0.0 | 0.00 | 0.00 | 0.00 | 17 | 1008.0 |
| 20260508033248 | 87 | 203 | 0.0 | 0.0 | 0.00 | 0.00 | 0.00 | 15 | 1008.0 |
| 20260508033025 | 87 | 203 | 0.0 | 0.0 | 0.00 | 0.00 | 0.00 | 15 | 1008.0 |
| 20260508032228 | 87 | 203 | 0.0 | 0.0 | 0.00 | 0.00 | 0.00 | 15 | 1007.6 |
| 20260508031713 | 87 | 203 | 0.0 | 0.9 | 0.00 | 0.00 | 0.00 | 13 | 1007.6 |
| 20260508031219 | 87 | 225 | 0.0 | 0.9 | 0.00 | 0.00 | 0.00 | 15 | 1007.6 |
| 20260508030654 | 88 | 135 | 0.0 | 0.0 | 0.00 | 0.00 | 0.00 | 13 | 1007.6 |
| 20260508030152 | 88 | 270 | 0.0 | 0.0 | 0.00 | 0.00 | 0.00 | 13 | 1007.6 |
| 20260508025637 | 88 | 270 | 0.0 | 0.9 | 0.00 | 0.00 | 0.00 | 12 | 1007.3 |
| 20260508025351 | 89 | 270 | 0.0 | 1.7 | 0.00 | 0.00 | 0.00 | 12 | 1007.3 |
| 20260508024602 | 89 | 315 | 0.0 | 4.3 | 0.00 | 0.00 | 0.00 | 12 | 1007.3 |
| 20260508024107 | 89 | 248 | 1.7 | 4.3 | 0.00 | 0.00 | 0.00 | 12 | 1007.3 |
| 20260508023544 | 89 | 248 | 0.9 | 2.6 | 0.00 | 0.00 | 0.00 | 12 | 1007.3 |
| 20260508023037 | 90 | 270 | 0.0 | 1.7 | 0.00 | 0.00 | 0.00 | 12 | 1006.9 |
| 20260508022502 | 90 | 225 | 0.9 | 1.7 | 0.00 | 0.00 | 0.00 | 12 | 1007.3 |
| 20260508021926 | 90 | 203 | 0.9 | 2.6 | 0.00 | 0.00 | 0.00 | 11 | 1006.9 |
| 20260508021418 | 91 | 248 | 0.9 | 4.3 | 0.00 | 0.00 | 0.00 | 12 | 1006.9 |
| 20260508020851 | 91 | 270 | 0.9 | 5.2 | 0.00 | 0.00 | 0.00 | 11 | 1006.9 |
| 20260508020353 | 91 | 158 | 1.7 | 5.2 | 0.00 | 0.00 | 0.00 | 10 | 1006.9 |
| 20260508020105 | 91 | 225 | 1.7 | 4.3 | 0.00 | 0.00 | 0.00 | 11 | 1006.9 |
| 20260508015552 | 91 | 315 | 1.7 | 4.3 | 0.00 | 0.00 | 0.00 | 10 | 1006.5 |
| 20260508014814 | 92 | 270 | 0.9 | 6.1 | 0.00 | 0.00 | 0.00 | 10 | 1006.5 |
| 20260508014254 | 92 | 270 | 1.7 | 6.1 | 0.00 | 0.00 | 0.00 | 10 | 1006.5 |
| 20260508013752 | 92 | 225 | 0.9 | 4.3 | 0.00 | 0.00 | 0.00 | 10 | 1006.2 |
| 20260508013237 | 92 | 225 | 0.9 | 4.3 | 0.00 | 0.00 | 0.00 | 10 | 1006.5 |
| 20260508012736 | 92 | 225 | 0.9 | 4.3 | 0.00 | 0.00 | 0.00 | 10 | 1006.5 |
| 20260508012228 | 93 | 203 | 1.7 | 6.1 | 0.00 | 0.00 | 0.00 | 10 | 1006.2 |
| 20260508011702 | 93 | 225 | 3.5 | 7.0 | 0.00 | 0.00 | 0.00 | 11 | 1006.5 |
| 20260508011154 | 93 | 248 | 2.6 | 7.0 | 0.00 | 0.00 | 0.00 | 10 | 1006.5 |
| 20260508010659 | 94 | 135 | 1.7 | 6.1 | 0.00 | 0.00 | 0.00 | 10 | 1006.5 |
| 20260508010459 | 94 | 270 | 1.7 | 6.1 | 0.00 | 0.00 | 0.00 | 10 | 1006.5 |
| 20260508005646 | 94 | 248 | 1.7 | 6.1 | 0.00 | 0.00 | 0.00 | 11 | 1006.5 |
| 20260508005154 | 94 | 248 | 0.9 | 6.1 | 0.00 | 0.00 | 0.00 | 11 | 1006.5 |
| 20260508004507 | 95 | 270 | 0.0 | 3.5 | 0.00 | 0.00 | 0.00 | 10 | 1006.5 |
| 20260508004007 | 95 | 248 | 0.9 | 3.5 | 0.00 | 0.00 | 0.00 | 9 | 1006.5 |
| 20260508003424 | 95 | 270 | 0.9 | 3.5 | 0.00 | 0.00 | 0.00 | 11 | 1006.5 |
| 20260508002912 | 95 | 315 | 0.9 | 3.5 | 0.00 | 0.00 | 0.00 | 11 | 1006.5 |
| 20260508002632 | 96 | 180 | 0.0 | 2.6 | 0.00 | 0.00 | 0.00 | 10 | 1006.2 |
| 20260508001845 | 96 | 225 | 0.0 | 4.3 | 0.00 | 0.00 | 0.00 | 10 | 1006.5 |
| 20260508001345 | 96 | 225 | 0.9 | 4.3 | 0.00 | 0.00 | 0.00 | 10 | 1006.5 |
| 20260508000845 | 96 | 270 | 0.0 | 3.5 | 0.00 | 0.00 | 0.00 | 10 | 1006.2 |
| 20260508000343 | 96 | 338 | 0.9 | 4.3 | 0.00 | 0.00 | 0.00 | 10 | 1006.5 |
| 20260507235843 | 96 | 338 | 0.9 | 4.3 | 0.00 | 0.00 | 0.00 | 11 | 1006.5 |
| 20260507235615 | 95 | 180 | 0.9 | 4.3 | 0.00 | 0.00 | 0.00 | 10 | 1006.5 |
| 20260507234844 | 95 | 270 | 0.9 | 5.2 | 0.00 | 0.00 | 0.00 | 9 | 1006.5 |
| 20260507234344 | 95 | 158 | 0.9 | 4.3 | 0.00 | 0.00 | 0.00 | 10 | 1006.5 |
| 20260507234116 | 95 | 225 | 0.9 | 5.2 | 0.00 | 0.00 | 0.00 | 9 | 1006.5 |
| 20260507233617 | 94 | 180 | 0.9 | 5.2 | 0.00 | 0.00 | 0.00 | 10 | 1006.5 |
| 20260507232845 | 94 | 293 | 0.9 | 5.2 | 0.00 | 0.00 | 0.00 | 10 | 1006.5 |
| 20260507232615 | 94 | 270 | 0.9 | 6.1 | 0.00 | 0.00 | 0.00 | 11 | 1006.9 |
| 20260507232114 | 94 | 180 | 1.7 | 6.1 | 0.00 | 0.00 | 0.00 | 9 | 1006.9 |
| 20260507231343 | 94 | 158 | 0.9 | 4.3 | 0.00 | 0.00 | 0.00 | 9 | 1006.9 |
| 20260507230843 | 95 | 158 | 0.9 | 5.2 | 0.00 | 0.00 | 0.00 | 10 | 1006.5 |
| 20260507230343 | 95 | 248 | 0.9 | 5.2 | 0.00 | 0.00 | 0.00 | 10 | 1006.9 |
| 20260507225844 | 95 | 180 | 0.9 | 5.2 | 0.00 | 0.00 | 0.00 | 10 | 1006.9 |
| 20260507225614 | 95 | 203 | 0.9 | 6.1 | 0.00 | 0.00 | 0.00 | 9 | 1006.9 |
| 20260507224844 | 96 | 180 | 1.7 | 6.1 | 0.00 | 0.00 | 0.00 | 10 | 1006.9 |
| 20260507224344 | 96 | 203 | 1.7 | 6.1 | 0.00 | 0.00 | 0.00 | 9 | 1006.9 |
| 20260507224114 | 96 | 225 | 0.9 | 5.2 | 0.00 | 0.00 | 0.00 | 10 | 1007.3 |
| 20260507223343 | 96 | 203 | 0.9 | 3.5 | 0.00 | 0.00 | 0.00 | 11 | 1007.3 |
| 20260507222842 | 96 | 45 | 0.0 | 3.5 | 0.00 | 0.00 | 0.00 | 12 | 1007.3 |
| 20260507222342 | 95 | 68 | 0.0 | 3.5 | 0.00 | 0.00 | 0.00 | 12 | 1007.3 |
| 20260507221843 | 96 | 158 | 0.9 | 5.2 | 0.00 | 0.00 | 0.00 | 9 | 1007.3 |
| 20260507221343 | 96 | 135 | 0.9 | 5.2 | 0.00 | 0.00 | 0.00 | 10 | 1007.6 |
| 20260507221114 | 96 | 23 | 0.9 | 4.3 | 0.00 | 0.00 | 0.00 | 12 | 1008.0 |
| 20260507220343 | 95 | 23 | 0.9 | 6.1 | 0.00 | 0.00 | 0.00 | 12 | 1007.6 |
| 20260507215844 | 95 | 315 | 0.9 | 6.1 | 0.00 | 0.00 | 0.00 | 11 | 1008.0 |
| 20260507215333 | 95 | 225 | 0.9 | 6.1 | 0.00 | 0.00 | 0.00 | 11 | 1007.6 |
| 20260507214825 | 94 | 225 | 0.9 | 6.1 | 0.00 | 0.00 | 0.00 | 10 | 1008.0 |
| 20260507214323 | 94 | 180 | 0.9 | 7.0 | 0.00 | 0.00 | 0.00 | 11 | 1008.0 |
| 20260507213824 | 95 | 180 | 1.7 | 7.0 | 0.00 | 0.00 | 0.00 | 11 | 1008.0 |
| 20260507213323 | 95 | 180 | 0.9 | 5.2 | 0.00 | 0.00 | 0.00 | 12 | 1008.3 |
| 20260507212824 | 95 | 203 | 0.9 | 4.3 | 0.00 | 0.00 | 0.00 | 12 | 1008.3 |
| 20260507212325 | 95 | 203 | 0.9 | 4.3 | 0.00 | 0.00 | 0.00 | 12 | 1008.3 |
| 20260507211825 | 95 | 180 | 0.0 | 3.5 | 0.00 | 0.00 | 0.00 | 10 | 1008.7 |
| 20260507211325 | 95 | 45 | 0.0 | 3.5 | 0.00 | 0.00 | 0.00 | 11 | 1008.7 |
| 20260507210824 | 95 | 203 | 0.0 | 6.1 | 0.00 | 0.00 | 0.00 | 11 | 1008.7 |
| 20260507210323 | 95 | 225 | 1.7 | 6.1 | 0.00 | 0.00 | 0.00 | 10 | 1008.7 |
| 20260507205823 | 95 | 270 | 0.9 | 6.1 | 0.00 | 0.00 | 0.00 | 11 | 1009.0 |
| 20260507205328 | 95 | 315 | 0.9 | 6.1 | 0.00 | 0.00 | 0.00 | 12 | 1008.7 |
| 20260507204822 | 95 | 225 | 0.9 | 4.3 | 0.00 | 0.00 | 0.00 | 11 | 1009.0 |
| 20260507204323 | 95 | 45 | 0.0 | 4.3 | 0.00 | 0.00 | 0.00 | 12 | 1008.7 |
| 20260507203824 | 95 | 270 | 0.0 | 3.5 | 0.00 | 0.00 | 0.00 | 12 | 1009.0 |
| 20260507203324 | 95 | 68 | 0.9 | 3.5 | 0.00 | 0.00 | 0.00 | 12 | 1009.0 |
| 20260507202824 | 95 | 248 | 0.0 | 3.5 | 0.00 | 0.00 | 0.00 | 12 | 1009.0 |
| 20260507202324 | 95 | 158 | 0.9 | 3.5 | 0.00 | 0.00 | 0.00 | 12 | 1009.3 |
| 20260507201823 | 95 | 203 | 0.0 | 1.7 | 0.00 | 0.00 | 0.00 | 12 | 1009.3 |
| 20260507201323 | 95 | 293 | 0.0 | 1.7 | 0.00 | 0.00 | 0.00 | 12 | 1009.7 |
| 20260507200823 | 95 | 338 | 0.0 | 1.7 | 0.00 | 0.00 | 0.00 | 12 | 1009.7 |
| 20260507200324 | 95 | 180 | 0.0 | 4.3 | 0.00 | 0.00 | 0.00 | 12 | 1009.7 |
| 20260507195823 | 95 | 45 | 0.9 | 4.3 | 0.00 | 0.00 | 0.00 | 12 | 1009.7 |
| 20260507195325 | 94 | 270 | 0.9 | 5.2 | 0.00 | 0.00 | 0.00 | 12 | 1009.7 |
| 20260507194824 | 94 | 180 | 0.9 | 5.2 | 0.00 | 0.00 | 0.00 | 12 | 1009.7 |
| 20260507194326 | 94 | 338 | 0.0 | 3.5 | 0.00 | 0.00 | 0.00 | 15 | 1010.0 |
| 20260507193824 | 94 | 45 | 0.9 | 5.2 | 0.00 | 0.00 | 0.00 | 13 | 1010.0 |
| 20260507193324 | 93 | 45 | 0.9 | 5.2 | 0.00 | 0.00 | 0.00 | 13 | 1010.0 |
| 20260507192823 | 93 | 68 | 0.0 | 2.6 | 0.00 | 0.00 | 0.00 | 13 | 1010.0 |
| 20260507192324 | 93 | 225 | 0.0 | 3.5 | 0.00 | 0.00 | 0.00 | 12 | 1010.0 |
| 20260507191823 | 93 | 203 | 0.0 | 3.5 | 0.00 | 0.00 | 0.00 | 12 | 1010.0 |
| 20260507191323 | 93 | 203 | 0.9 | 4.3 | 0.00 | 0.00 | 0.00 | 12 | 1010.5 |
| 20260507190824 | 92 | 45 | 0.9 | 4.3 | 0.00 | 0.00 | 0.00 | 15 | 1010.5 |
| 20260507190325 | 92 | 338 | 0.0 | 4.3 | 0.00 | 0.00 | 0.00 | 12 | 1010.0 |
| 20260507185824 | 92 | 270 | 0.0 | 7.0 | 0.00 | 0.00 | 0.00 | 15 | 1010.8 |
| 20260507185556 | 91 | 203 | 0.9 | 7.0 | 0.00 | 0.00 | 0.00 | 13 | 1010.8 |
| 20260507185056 | 91 | 45 | 0.9 | 3.5 | 0.00 | 0.00 | 0.00 | 15 | 1010.8 |
| 20260507184323 | 91 | 0 | 0.0 | 2.6 | 0.00 | 0.00 | 0.00 | 13 | 1011.1 |
| 20260507184055 | 91 | 45 | 0.0 | 3.5 | 0.00 | 0.00 | 0.00 | 12 | 1011.1 |
| 20260507183323 | 91 | 135 | 0.9 | 3.5 | 0.00 | 0.00 | 0.00 | 12 | 1011.1 |
| 20260507182822 | 90 | 158 | 0.9 | 3.5 | 0.00 | 0.00 | 0.00 | 13 | 1011.1 |
| 20260507182324 | 90 | 248 | 0.9 | 3.5 | 0.00 | 0.00 | 0.00 | 12 | 1011.1 |
| 20260507182054 | 89 | 45 | 0.0 | 2.6 | 0.00 | 0.00 | 0.00 | 15 | 1011.5 |
| 20260507181554 | 89 | 90 | 0.0 | 2.6 | 0.00 | 0.00 | 0.00 | 15 | 1011.1 |
| 20260507180824 | 88 | 158 | 0.0 | 4.3 | 0.00 | 0.00 | 0.00 | 15 | 1011.5 |
| 20260507180324 | 88 | 248 | 0.9 | 4.3 | 0.00 | 0.00 | 0.00 | 15 | 1011.5 |
| 20260507175823 | 88 | 180 | 0.9 | 3.5 | 0.00 | 0.00 | 0.00 | 17 | 1011.5 |
| 20260507175553 | 87 | 135 | 0.0 | 1.7 | 0.00 | 0.00 | 0.00 | 17 | 1011.5 |
| 20260507174822 | 87 | 338 | 0.0 | 2.6 | 0.00 | 0.00 | 0.00 | 17 | 1011.8 |
| 20260507174322 | 87 | 270 | 0.0 | 3.5 | 0.00 | 0.00 | 0.00 | 19 | 1011.8 |
| 20260507173823 | 87 | 315 | 0.0 | 3.5 | 0.00 | 0.00 | 0.00 | 19 | 1011.8 |
| 20260507173323 | 86 | 0 | 0.9 | 3.5 | 0.00 | 0.00 | 0.00 | 19 | 1011.8 |
| 20260507172823 | 86 | 45 | 0.9 | 3.5 | 0.00 | 0.00 | 0.00 | 17 | 1011.8 |
| 20260507172554 | 86 | 45 | 0.0 | 2.6 | 0.00 | 0.00 | 0.00 | 19 | 1011.8 |
| 20260507171824 | 86 | 0 | 0.0 | 2.6 | 0.00 | 0.00 | 0.00 | 20 | 1012.1 |
| 20260507171328 | 86 | 0 | 0.0 | 3.5 | 0.00 | 0.00 | 0.00 | 20 | 1011.8 |
| 20260507170822 | 85 | 158 | 0.9 | 3.5 | 0.00 | 0.00 | 0.00 | 19 | 1011.8 |
| 20260507170323 | 85 | 113 | 0.9 | 3.5 | 0.00 | 0.00 | 0.00 | 19 | 1011.8 |
| 20260507165823 | 84 | 203 | 0.9 | 3.5 | 0.00 | 0.00 | 0.00 | 20 | 1012.1 |
| 20260507165553 | 84 | 315 | 0.0 | 2.6 | 0.00 | 0.00 | 0.00 | 20 | 1012.1 |
| 20260507164823 | 84 | 225 | 0.0 | 2.6 | 0.00 | 0.00 | 0.00 | 20 | 1012.1 |
| 20260507164323 | 83 | 248 | 0.9 | 4.3 | 0.00 | 0.00 | 0.00 | 22 | 1012.1 |
| 20260507164055 | 83 | 45 | 0.0 | 4.3 | 0.00 | 0.00 | 0.00 | 24 | 1012.1 |
| 20260507163323 | 82 | 68 | 0.0 | 2.6 | 0.00 | 0.00 | 0.00 | 25 | 1012.5 |
| 20260507162822 | 82 | 270 | 0.0 | 2.6 | 0.00 | 0.00 | 0.00 | 25 | 1012.1 |
| 20260507162322 | 82 | 23 | 0.0 | 2.6 | 0.00 | 0.00 | 0.00 | 25 | 1012.1 |
| 20260507161822 | 81 | 45 | 0.0 | 2.6 | 0.00 | 0.00 | 0.00 | 27 | 1012.5 |
| 20260507161324 | 80 | 158 | 0.0 | 2.6 | 0.00 | 0.00 | 0.00 | 27 | 1012.5 |
| 20260507160822 | 80 | 180 | 0.0 | 2.6 | 0.00 | 0.00 | 0.00 | 27 | 1012.5 |
| 20260507160324 | 80 | 0 | 0.0 | 1.7 | 0.00 | 0.00 | 0.00 | 27 | 1012.5 |
| 20260507155823 | 79 | 90 | 0.0 | 0.0 | 0.00 | 0.00 | 0.00 | 27 | 1012.5 |
| 20260507155324 | 79 | 135 | 0.0 | 0.0 | 0.00 | 0.00 | 0.00 | 27 | 1012.5 |
| 20260507154823 | 78 | 90 | 0.0 | 0.9 | 0.00 | 0.00 | 0.00 | 27 | 1012.5 |
| 20260507154324 | 78 | 158 | 0.0 | 0.9 | 0.00 | 0.00 | 0.00 | 29 | 1012.5 |
| 20260507153822 | 78 | 45 | 0.0 | 0.9 | 0.00 | 0.00 | 0.00 | 29 | 1012.5 |
| 20260507153323 | 78 | 45 | 0.0 | 1.7 | 0.00 | 0.00 | 0.00 | 29 | 1012.8 |
| 20260507152824 | 77 | 23 | 0.0 | 1.7 | 0.00 | 0.00 | 0.00 | 30 | 1012.5 |
| 20260507152322 | 78 | 68 | 0.0 | 0.9 | 0.00 | 0.00 | 0.00 | 30 | 1012.5 |
| 20260507151823 | 77 | 45 | 0.0 | 1.7 | 0.00 | 0.00 | 0.00 | 30 | 1012.8 |
| 20260507151305 | 77 | 23 | 0.0 | 1.7 | 0.00 | 0.00 | 0.00 | 30 | 1012.8 |
| 20260507150804 | 77 | 158 | 0.0 | 1.7 | 0.00 | 0.00 | 0.00 | 30 | 1012.5 |
| 20260507150305 | 76 | 45 | 0.0 | 1.7 | 0.00 | 0.00 | 0.00 | 31 | 1012.5 |
| 20260507145804 | 76 | 135 | 0.0 | 1.7 | 0.00 | 0.00 | 0.00 | 30 | 1012.5 |
| 20260507145306 | 75 | 270 | 0.0 | 1.7 | 0.00 | 0.00 | 0.00 | 30 | 1012.5 |
| 20260507144803 | 74 | 135 | 0.0 | 1.7 | 0.00 | 0.00 | 0.00 | 31 | 1012.5 |
| 20260507144304 | 74 | 203 | 0.0 | 0.9 | 0.00 | 0.00 | 0.00 | 34 | 1012.5 |
| 20260507143803 | 73 | 203 | 0.0 | 0.9 | 0.00 | 0.00 | 0.00 | 34 | 1012.5 |
| 20260507143304 | 72 | 180 | 0.0 | 0.9 | 0.00 | 0.00 | 0.00 | 34 | 1012.5 |
| 20260507142804 | 71 | 203 | 0.0 | 1.7 | 0.00 | 0.00 | 0.00 | 35 | 1012.1 |
| 20260507142306 | 70 | 68 | 0.0 | 1.7 | 0.00 | 0.00 | 0.00 | 35 | 1012.5 |
| 20260507141804 | 70 | 315 | 0.0 | 0.9 | 0.00 | 0.00 | 0.00 | 35 | 1012.1 |
| 20260507141304 | 69 | 338 | 0.0 | 0.9 | 0.00 | 0.00 | 0.00 | 37 | 1012.5 |
| 20260507140803 | 69 | 293 | 0.0 | 0.9 | 0.00 | 0.00 | 0.00 | 35 | 1012.1 |
| 20260507140303 | 69 | 0 | 0.0 | 0.9 | 0.00 | 0.00 | 0.00 | 37 | 1012.1 |
| 20260507135804 | 68 | 0 | 0.0 | 0.0 | 0.00 | 0.00 | 0.00 | 37 | 1012.1 |
| 20260507135306 | 68 | 338 | 0.0 | 0.0 | 0.00 | 0.00 | 0.00 | 37 | 1012.1 |
| 20260507134806 | 68 | 338 | 0.0 | 0.0 | 0.00 | 0.00 | 0.00 | 35 | 1012.1 |
| 20260507134305 | 67 | 68 | 0.0 | 0.0 | 0.00 | 0.00 | 0.00 | 37 | 1012.1 |
| 20260507133804 | 67 | 68 | 0.0 | 0.9 | 0.00 | 0.00 | 0.00 | 37 | 1011.8 |
| 20260507133304 | 67 | 68 | 0.0 | 1.7 | 0.00 | 0.00 | 0.00 | 35 | 1012.1 |
| 20260507132808 | 67 | 23 | 0.0 | 0.9 | 0.00 | 0.00 | 0.00 | 35 | 1012.1 |
| 20260507132804 | 67 | 45 | 0.0 | 1.7 | 0.00 | 0.00 | 0.00 | 35 | 1011.8 |
| 20260507131757 | 67 | 203 | 0.0 | 3.5 | 0.00 | 0.00 | 0.00 | 34 | 1011.8 |
| 20260507131244 | 66 | 0 | 0.0 | 4.3 | 0.00 | 0.00 | 0.00 | 35 | 1011.8 |
| 20260507130745 | 66 | 23 | 0.0 | 4.3 | 0.00 | 0.00 | 0.00 | 35 | 1011.8 |
| 20260507130244 | 66 | 23 | 0.0 | 3.5 | 0.00 | 0.00 | 0.00 | 35 | 1011.8 |
| 20260507125746 | 66 | 23 | 0.9 | 3.5 | 0.00 | 0.00 | 0.00 | 35 | 1011.5 |
| 20260507125245 | 66 | 23 | 0.0 | 2.6 | 0.00 | 0.00 | 0.00 | 35 | 1011.8 |
| 20260507124745 | 66 | 23 | 0.0 | 1.7 | 0.00 | 0.00 | 0.00 | 35 | 1011.8 |
| 20260507124246 | 66 | 0 | 0.0 | 2.6 | 0.00 | 0.00 | 0.00 | 35 | 1011.8 |
| 20260507123745 | 66 | 23 | 0.0 | 2.6 | 0.00 | 0.00 | 0.00 | 35 | 1011.8 |
| 20260507123245 | 66 | 338 | 0.0 | 1.7 | 0.00 | 0.00 | 0.00 | 35 | 1011.8 |
| 20260507122745 | 66 | 0 | 0.0 | 3.5 | 0.00 | 0.00 | 0.00 | 35 | 1011.8 |
| 20260507122245 | 66 | 45 | 0.9 | 3.5 | 0.00 | 0.00 | 0.00 | 35 | 1011.8 |
| 20260507121744 | 66 | 23 | 0.0 | 1.7 | 0.00 | 0.00 | 0.00 | 35 | 1011.8 |
| 20260507121245 | 66 | 23 | 0.0 | 0.9 | 0.00 | 0.00 | 0.00 | 35 | 1011.8 |
| 20260507120745 | 66 | 23 | 0.0 | 2.6 | 0.00 | 0.00 | 0.00 | 35 | 1011.8 |
| 20260507120516 | 66 | 45 | 0.0 | 2.6 | 0.00 | 0.00 | 0.00 | 35 | 1011.8 |
| 20260507115745 | 66 | 0 | 0.0 | 1.7 | 0.00 | 0.00 | 0.00 | 35 | 1011.8 |
| 20260507115245 | 66 | 45 | 0.0 | 1.7 | 0.00 | 0.00 | 0.00 | 35 | 1011.8 |
| 20260507114744 | 66 | 45 | 0.0 | 0.0 | 0.00 | 0.00 | 0.00 | 35 | 1011.8 |
| 20260507114248 | 66 | 45 | 0.0 | 0.9 | 0.00 | 0.00 | 0.00 | 35 | 1011.8 |
| 20260507114244 | 66 | 45 | 0.0 | 0.9 | 0.00 | 0.00 | 0.00 | 35 | 1011.8 |
| 20260507113244 | 66 | 45 | 0.0 | 1.7 | 0.00 | 0.00 | 0.00 | 35 | 1011.8 |
| 20260507112744 | 66 | 23 | 0.0 | 1.7 | 0.00 | 0.00 | 0.00 | 35 | 1011.8 |
| 20260507112245 | 66 | 45 | 0.0 | 2.6 | 0.00 | 0.00 | 0.00 | 35 | 1011.5 |
| 20260507111745 | 66 | 45 | 0.0 | 2.6 | 0.00 | 0.00 | 0.00 | 35 | 1011.8 |
| 20260507111515 | 66 | 45 | 0.0 | 1.7 | 0.00 | 0.00 | 0.00 | 37 | 1011.8 |
| 20260507110745 | 66 | 23 | 0.0 | 1.7 | 0.00 | 0.00 | 0.00 | 37 | 1011.8 |
| 20260507110245 | 66 | 68 | 0.0 | 0.0 | 0.00 | 0.00 | 0.00 | 37 | 1011.8 |
| 20260507105744 | 66 | 23 | 0.0 | 0.9 | 0.00 | 0.00 | 0.00 | 37 | 1011.8 |
| 20260507105244 | 66 | 45 | 0.0 | 1.7 | 0.00 | 0.00 | 0.00 | 37 | 1012.1 |